Year,Month,Day,Hour,Minute,Value (Times are PST for temperature in C)
2015,06,28,00,00,22.20
2015,06,28,00,01,22.20
2015,06,28,00,02,22.20
2015,06,28,00,03,22.20
2015,06,28,00,04,22.20
2015,06,28,00,05,22.20
2015,06,28,00,06,22.20
2015,06,28,00,07,22.10
2015,06,28,00,08,22.10
2015,06,28,00,09,22.10
2015,06,28,00,10,22.10
2015,06,28,00,11,22.10
2015,06,28,00,12,22.10
2015,06,28,00,13,22.10
2015,06,28,00,14,22.10
2015,06,28,00,15,22.10
2015,06,28,00,16,22.10
2015,06,28,00,17,22.10
2015,06,28,00,18,22.10
2015,06,28,00,19,22.10
2015,06,28,00,20,22.10
2015,06,28,00,21,22.10
2015,06,28,00,22,22.10
2015,06,28,00,23,22.10
2015,06,28,00,24,22.10
2015,06,28,00,25,22.10
2015,06,28,00,26,22.10
2015,06,28,00,27,22.10
2015,06,28,00,28,22.10
2015,06,28,00,29,22.00
2015,06,28,00,30,22.00
2015,06,28,00,31,22.00
2015,06,28,00,32,21.90
2015,06,28,00,33,21.90
2015,06,28,00,34,21.80
2015,06,28,00,35,21.80
2015,06,28,00,36,21.80
2015,06,28,00,37,21.80
2015,06,28,00,38,21.70
2015,06,28,00,39,21.70
2015,06,28,00,40,21.70
2015,06,28,00,41,21.60
2015,06,28,00,42,21.60
2015,06,28,00,43,21.60
2015,06,28,00,44,21.60
2015,06,28,00,45,21.60
2015,06,28,00,46,21.60
2015,06,28,00,47,21.60
2015,06,28,00,48,21.60
2015,06,28,00,49,21.60
2015,06,28,00,50,21.60
2015,06,28,00,51,21.50
2015,06,28,00,52,21.50
2015,06,28,00,53,21.50
2015,06,28,00,54,21.50
2015,06,28,00,55,21.40
2015,06,28,00,56,21.40
2015,06,28,00,57,21.40
2015,06,28,00,58,21.30
2015,06,28,00,59,21.30
2015,06,28,01,00,21.30
2015,06,28,01,01,21.30
2015,06,28,01,02,21.30
2015,06,28,01,03,21.30
2015,06,28,01,04,21.30
2015,06,28,01,05,21.20
2015,06,28,01,06,21.20
2015,06,28,01,07,21.20
2015,06,28,01,08,21.20
2015,06,28,01,09,21.20
2015,06,28,01,10,21.10
2015,06,28,01,11,21.10
2015,06,28,01,12,21.10
2015,06,28,01,13,21.10
2015,06,28,01,14,21.10
2015,06,28,01,15,21.10
2015,06,28,01,16,21.10
2015,06,28,01,17,21.10
2015,06,28,01,18,21.10
2015,06,28,01,19,21.10
2015,06,28,01,20,21.10
2015,06,28,01,21,21.00
2015,06,28,01,22,21.00
2015,06,28,01,23,21.00
2015,06,28,01,24,21.00
2015,06,28,01,25,21.00
2015,06,28,01,26,21.00
2015,06,28,01,27,20.90
2015,06,28,01,28,20.90
2015,06,28,01,29,20.90
2015,06,28,01,30,20.90
2015,06,28,01,31,20.90
2015,06,28,01,32,20.90
2015,06,28,01,33,20.90
2015,06,28,01,34,20.90
2015,06,28,01,35,20.90
2015,06,28,01,36,20.90
2015,06,28,01,37,20.80
2015,06,28,01,38,20.80
2015,06,28,01,39,20.80
2015,06,28,01,40,20.80
2015,06,28,01,41,20.80
2015,06,28,01,42,20.80
2015,06,28,01,43,20.80
2015,06,28,01,44,20.70
2015,06,28,01,45,20.70
2015,06,28,01,46,20.70
2015,06,28,01,47,20.70
2015,06,28,01,48,20.60
2015,06,28,01,49,20.60
2015,06,28,01,50,20.60
2015,06,28,01,51,20.50
2015,06,28,01,52,20.50
2015,06,28,01,53,20.50
2015,06,28,01,54,20.40
2015,06,28,01,55,20.40
2015,06,28,01,56,20.40
2015,06,28,01,57,20.50
2015,06,28,01,58,20.50
2015,06,28,01,59,20.50
2015,06,28,02,00,20.50
2015,06,28,02,01,20.50
2015,06,28,02,02,20.50
2015,06,28,02,03,20.50
2015,06,28,02,04,20.50
2015,06,28,02,05,20.50
2015,06,28,02,06,20.50
2015,06,28,02,07,20.40
2015,06,28,02,08,20.40
2015,06,28,02,09,20.40
2015,06,28,02,10,20.40
2015,06,28,02,11,20.40
2015,06,28,02,12,20.40
2015,06,28,02,13,20.40
2015,06,28,02,14,20.40
2015,06,28,02,15,20.40
2015,06,28,02,16,20.40
2015,06,28,02,17,20.40
2015,06,28,02,18,20.40
2015,06,28,02,19,20.50
2015,06,28,02,20,20.50
2015,06,28,02,21,20.40
2015,06,28,02,22,20.40
2015,06,28,02,23,20.40
2015,06,28,02,24,20.40
2015,06,28,02,25,20.40
2015,06,28,02,26,20.40
2015,06,28,02,27,20.30
2015,06,28,02,28,20.30
2015,06,28,02,29,20.30
2015,06,28,02,30,20.30
2015,06,28,02,31,20.30
2015,06,28,02,32,20.30
2015,06,28,02,33,20.30
2015,06,28,02,34,20.20
2015,06,28,02,35,20.20
2015,06,28,02,36,20.20
2015,06,28,02,37,20.20
2015,06,28,02,38,20.10
2015,06,28,02,39,20.10
2015,06,28,02,40,20.10
2015,06,28,02,41,20.10
2015,06,28,02,42,20.10
2015,06,28,02,43,20.00
2015,06,28,02,44,20.00
2015,06,28,02,45,20.00
2015,06,28,02,46,20.00
2015,06,28,02,47,20.00
2015,06,28,02,48,19.90
2015,06,28,02,49,19.90
2015,06,28,02,50,19.90
2015,06,28,02,51,19.90
2015,06,28,02,52,19.90
2015,06,28,02,53,19.90
2015,06,28,02,54,19.90
2015,06,28,02,55,19.80
2015,06,28,02,56,19.80
2015,06,28,02,57,19.80
2015,06,28,02,58,19.80
2015,06,28,02,59,19.80
2015,06,28,03,00,19.80
2015,06,28,03,01,19.80
2015,06,28,03,02,19.70
2015,06,28,03,03,19.70
2015,06,28,03,04,19.70
2015,06,28,03,05,19.70
2015,06,28,03,06,19.70
2015,06,28,03,07,19.70
2015,06,28,03,08,19.70
2015,06,28,03,09,19.70
2015,06,28,03,10,19.70
2015,06,28,03,11,19.70
2015,06,28,03,12,19.70
2015,06,28,03,13,19.70
2015,06,28,03,14,19.60
2015,06,28,03,15,19.60
2015,06,28,03,16,19.60
2015,06,28,03,17,19.60
2015,06,28,03,18,19.60
2015,06,28,03,19,19.50
2015,06,28,03,20,19.50
2015,06,28,03,21,19.50
2015,06,28,03,22,19.50
2015,06,28,03,23,19.50
2015,06,28,03,24,19.40
2015,06,28,03,25,19.40
2015,06,28,03,26,19.40
2015,06,28,03,27,19.40
2015,06,28,03,28,19.40
2015,06,28,03,29,19.40
2015,06,28,03,30,19.30
2015,06,28,03,31,19.30
2015,06,28,03,32,19.30
2015,06,28,03,33,19.30
2015,06,28,03,34,19.30
2015,06,28,03,35,19.20
2015,06,28,03,36,19.20
2015,06,28,03,37,19.20
2015,06,28,03,38,19.20
2015,06,28,03,39,19.20
2015,06,28,03,40,19.20
2015,06,28,03,41,19.20
2015,06,28,03,42,19.20
2015,06,28,03,43,19.20
2015,06,28,03,44,19.10
2015,06,28,03,45,19.10
2015,06,28,03,46,19.10
2015,06,28,03,47,19.10
2015,06,28,03,48,19.10
2015,06,28,03,49,19.10
2015,06,28,03,50,19.10
2015,06,28,03,51,19.00
2015,06,28,03,52,19.00
2015,06,28,03,53,19.00
2015,06,28,03,54,18.90
2015,06,28,03,55,18.90
2015,06,28,03,56,18.90
2015,06,28,03,57,18.90
2015,06,28,03,58,18.90
2015,06,28,03,59,18.90
2015,06,28,04,00,18.90
2015,06,28,04,01,18.80
2015,06,28,04,02,18.80
2015,06,28,04,03,18.80
2015,06,28,04,04,18.80
2015,06,28,04,05,18.80
2015,06,28,04,06,18.70
2015,06,28,04,07,18.70
2015,06,28,04,08,18.70
2015,06,28,04,09,18.60
2015,06,28,04,10,18.60
2015,06,28,04,11,18.50
2015,06,28,04,12,18.50
2015,06,28,04,13,18.50
2015,06,28,04,14,18.40
2015,06,28,04,15,18.40
2015,06,28,04,16,18.40
2015,06,28,04,17,18.40
2015,06,28,04,18,18.30
2015,06,28,04,19,18.30
2015,06,28,04,20,18.30
2015,06,28,04,21,18.30
2015,06,28,04,22,18.30
2015,06,28,04,23,18.30
2015,06,28,04,24,18.30
2015,06,28,04,25,18.30
2015,06,28,04,26,18.30
2015,06,28,04,27,18.30
2015,06,28,04,28,18.30
2015,06,28,04,29,18.30
2015,06,28,04,30,18.30
2015,06,28,04,31,18.30
2015,06,28,04,32,18.30
2015,06,28,04,33,18.30
2015,06,28,04,34,18.30
2015,06,28,04,35,18.30
2015,06,28,04,36,18.30
2015,06,28,04,37,18.30
2015,06,28,04,38,18.30
2015,06,28,04,39,18.20
2015,06,28,04,40,18.20
2015,06,28,04,41,18.20
2015,06,28,04,42,18.20
2015,06,28,04,43,18.20
2015,06,28,04,44,18.20
2015,06,28,04,45,18.20
2015,06,28,04,46,18.20
2015,06,28,04,47,18.20
2015,06,28,04,48,18.20
2015,06,28,04,49,18.20
2015,06,28,04,50,18.20
2015,06,28,04,51,18.20
2015,06,28,04,52,18.20
2015,06,28,04,53,18.20
2015,06,28,04,54,18.20
2015,06,28,04,55,18.20
2015,06,28,04,56,18.20
2015,06,28,04,57,18.20
2015,06,28,04,58,18.20
2015,06,28,04,59,18.20
2015,06,28,05,00,18.20
2015,06,28,05,01,18.10
2015,06,28,05,02,18.10
2015,06,28,05,03,18.10
2015,06,28,05,04,18.10
2015,06,28,05,05,18.10
2015,06,28,05,06,18.00
2015,06,28,05,07,18.00
2015,06,28,05,08,17.90
2015,06,28,05,09,17.90
2015,06,28,05,10,17.90
2015,06,28,05,11,17.90
2015,06,28,05,12,17.80
2015,06,28,05,13,17.80
2015,06,28,05,14,17.80
2015,06,28,05,15,17.80
2015,06,28,05,16,17.80
2015,06,28,05,17,17.80
2015,06,28,05,18,17.80
2015,06,28,05,19,17.80
2015,06,28,05,20,17.80
2015,06,28,05,21,17.80
2015,06,28,05,22,17.80
2015,06,28,05,23,17.80
2015,06,28,05,24,17.80
2015,06,28,05,25,17.80
2015,06,28,05,26,17.80
2015,06,28,05,27,17.80
2015,06,28,05,28,17.80
2015,06,28,05,29,17.80
2015,06,28,05,30,17.80
2015,06,28,05,31,17.80
2015,06,28,05,32,17.80
2015,06,28,05,33,17.80
2015,06,28,05,34,17.80
2015,06,28,05,35,17.80
2015,06,28,05,36,17.80
2015,06,28,05,37,17.80
2015,06,28,05,38,17.80
2015,06,28,05,39,17.80
2015,06,28,05,40,17.80
2015,06,28,05,41,17.80
2015,06,28,05,42,17.80
2015,06,28,05,43,17.80
2015,06,28,05,44,17.80
2015,06,28,05,45,17.80
2015,06,28,05,46,17.80
2015,06,28,05,47,17.80
2015,06,28,05,48,17.80
2015,06,28,05,49,17.80
2015,06,28,05,50,17.80
2015,06,28,05,51,17.80
2015,06,28,05,52,17.80
2015,06,28,05,53,17.80
2015,06,28,05,54,17.80
2015,06,28,05,55,17.80
2015,06,28,05,56,17.80
2015,06,28,05,57,17.80
2015,06,28,05,58,17.80
2015,06,28,05,59,17.80
2015,06,28,06,00,17.80
2015,06,28,06,01,17.80
2015,06,28,06,02,17.80
2015,06,28,06,03,17.80
2015,06,28,06,04,17.80
2015,06,28,06,05,17.90
2015,06,28,06,06,17.90
2015,06,28,06,07,17.90
2015,06,28,06,08,17.90
2015,06,28,06,09,17.90
2015,06,28,06,10,17.90
2015,06,28,06,11,17.90
2015,06,28,06,12,17.90
2015,06,28,06,13,17.90
2015,06,28,06,14,18.00
2015,06,28,06,15,18.00
2015,06,28,06,16,18.00
2015,06,28,06,17,18.00
2015,06,28,06,18,18.00
2015,06,28,06,19,18.10
2015,06,28,06,20,18.10
2015,06,28,06,21,18.10
2015,06,28,06,22,18.10
2015,06,28,06,23,18.10
2015,06,28,06,24,18.10
2015,06,28,06,25,18.20
2015,06,28,06,26,18.20
2015,06,28,06,27,18.20
2015,06,28,06,28,18.20
2015,06,28,06,29,18.30
2015,06,28,06,30,18.30
2015,06,28,06,31,18.30
2015,06,28,06,32,18.30
2015,06,28,06,33,18.40
2015,06,28,06,34,18.40
2015,06,28,06,35,18.40
2015,06,28,06,36,18.40
2015,06,28,06,37,18.40
2015,06,28,06,38,18.40
2015,06,28,06,39,18.50
2015,06,28,06,40,18.50
2015,06,28,06,41,18.60
2015,06,28,06,42,18.60
2015,06,28,06,43,18.60
2015,06,28,06,44,18.60
2015,06,28,06,45,18.70
2015,06,28,06,46,18.70
2015,06,28,06,47,18.70
2015,06,28,06,48,18.70
2015,06,28,06,49,18.70
2015,06,28,06,50,18.70
2015,06,28,06,51,18.70
2015,06,28,06,52,18.70
2015,06,28,06,53,18.70
2015,06,28,06,54,18.70
2015,06,28,06,55,18.70
2015,06,28,06,56,18.70
2015,06,28,06,57,18.70
2015,06,28,06,58,18.70
2015,06,28,06,59,18.70
2015,06,28,07,00,18.70
2015,06,28,07,01,18.70
2015,06,28,07,02,18.70
2015,06,28,07,03,18.70
2015,06,28,07,04,18.70
2015,06,28,07,05,18.70
2015,06,28,07,06,18.80
2015,06,28,07,07,18.80
2015,06,28,07,08,18.80
2015,06,28,07,09,18.80
2015,06,28,07,10,18.80
2015,06,28,07,11,18.90
2015,06,28,07,12,18.90
2015,06,28,07,13,18.90
2015,06,28,07,14,19.00
2015,06,28,07,15,19.00
2015,06,28,07,16,19.00
2015,06,28,07,17,19.10
2015,06,28,07,18,19.10
2015,06,28,07,19,19.10
2015,06,28,07,20,19.20
2015,06,28,07,21,19.20
2015,06,28,07,22,19.20
2015,06,28,07,23,19.20
2015,06,28,07,24,19.30
2015,06,28,07,25,19.30
2015,06,28,07,26,19.30
2015,06,28,07,27,19.30
2015,06,28,07,28,19.40
2015,06,28,07,29,19.40
2015,06,28,07,30,19.40
2015,06,28,07,31,19.40
2015,06,28,07,32,19.50
2015,06,28,07,33,19.50
2015,06,28,07,34,19.50
2015,06,28,07,35,19.50
2015,06,28,07,36,19.60
2015,06,28,07,37,19.60
2015,06,28,07,38,19.60
2015,06,28,07,39,19.60
2015,06,28,07,40,19.60
2015,06,28,07,41,19.70
2015,06,28,07,42,19.70
2015,06,28,07,43,19.70
2015,06,28,07,44,19.80
2015,06,28,07,45,19.80
2015,06,28,07,46,19.80
2015,06,28,07,47,19.90
2015,06,28,07,48,19.90
2015,06,28,07,49,19.90
2015,06,28,07,50,20.00
2015,06,28,07,51,20.00
2015,06,28,07,52,20.10
2015,06,28,07,53,20.10
2015,06,28,07,54,20.10
2015,06,28,07,55,20.20
2015,06,28,07,56,20.20
2015,06,28,07,57,20.20
2015,06,28,07,58,20.30
2015,06,28,07,59,20.30
2015,06,28,08,00,20.40
2015,06,28,08,01,20.40
2015,06,28,08,02,20.50
2015,06,28,08,03,20.50
2015,06,28,08,04,20.60
2015,06,28,08,05,20.70
2015,06,28,08,06,20.80
2015,06,28,08,07,20.80
2015,06,28,08,08,20.90
2015,06,28,08,09,20.90
2015,06,28,08,10,21.00
2015,06,28,08,11,21.00
2015,06,28,08,12,21.10
2015,06,28,08,13,21.10
2015,06,28,08,14,21.20
2015,06,28,08,15,21.30
2015,06,28,08,16,21.40
2015,06,28,08,17,21.40
2015,06,28,08,18,21.50
2015,06,28,08,19,21.60
2015,06,28,08,20,21.70
2015,06,28,08,21,21.70
2015,06,28,08,22,21.80
2015,06,28,08,23,21.80
2015,06,28,08,24,21.90
2015,06,28,08,25,22.00
2015,06,28,08,26,22.10
2015,06,28,08,27,22.20
2015,06,28,08,28,22.30
2015,06,28,08,29,22.40
2015,06,28,08,30,22.40
2015,06,28,08,31,22.50
2015,06,28,08,32,22.60
2015,06,28,08,33,22.70
2015,06,28,08,34,22.80
2015,06,28,08,35,22.80
2015,06,28,08,36,22.90
2015,06,28,08,37,22.90
2015,06,28,08,38,23.00
2015,06,28,08,39,23.00
2015,06,28,08,40,23.10
2015,06,28,08,41,23.10
2015,06,28,08,42,23.10
2015,06,28,08,43,23.20
2015,06,28,08,44,23.20
2015,06,28,08,45,23.20
2015,06,28,08,46,23.20
2015,06,28,08,47,23.20
2015,06,28,08,48,23.20
2015,06,28,08,49,23.20
2015,06,28,08,50,23.30
2015,06,28,08,51,23.30
2015,06,28,08,52,23.30
2015,06,28,08,53,23.40
2015,06,28,08,54,23.40
2015,06,28,08,55,23.50
2015,06,28,08,56,23.60
2015,06,28,08,57,23.60
2015,06,28,08,58,23.70
2015,06,28,08,59,23.80
2015,06,28,09,00,23.90
2015,06,28,09,01,23.90
2015,06,28,09,02,24.00
2015,06,28,09,03,24.10
2015,06,28,09,04,24.10
2015,06,28,09,05,24.20
2015,06,28,09,06,24.20
2015,06,28,09,07,24.20
2015,06,28,09,08,24.20
2015,06,28,09,09,24.30
2015,06,28,09,10,24.40
2015,06,28,09,11,24.40
2015,06,28,09,12,24.50
2015,06,28,09,13,24.60
2015,06,28,09,14,24.70
2015,06,28,09,15,24.80
2015,06,28,09,16,24.90
2015,06,28,09,17,24.90
2015,06,28,09,18,25.00
2015,06,28,09,19,25.10
2015,06,28,09,20,25.10
2015,06,28,09,21,25.20
2015,06,28,09,22,25.20
2015,06,28,09,23,25.20
2015,06,28,09,24,25.30
2015,06,28,09,25,25.30
2015,06,28,09,26,25.40
2015,06,28,09,27,25.40
2015,06,28,09,28,25.50
2015,06,28,09,29,25.50
2015,06,28,09,30,25.60
2015,06,28,09,31,25.60
2015,06,28,09,32,25.60
2015,06,28,09,33,25.70
2015,06,28,09,34,25.70
2015,06,28,09,35,25.70
2015,06,28,09,36,25.70
2015,06,28,09,37,25.80
2015,06,28,09,38,25.80
2015,06,28,09,39,25.90
2015,06,28,09,40,25.90
2015,06,28,09,41,25.90
2015,06,28,09,42,25.90
2015,06,28,09,43,25.90
2015,06,28,09,44,25.90
2015,06,28,09,45,25.90
2015,06,28,09,46,25.90
2015,06,28,09,47,25.90
2015,06,28,09,48,25.90
2015,06,28,09,49,26.00
2015,06,28,09,50,26.00
2015,06,28,09,51,26.10
2015,06,28,09,52,26.10
2015,06,28,09,53,26.20
2015,06,28,09,54,26.20
2015,06,28,09,55,26.20
2015,06,28,09,56,26.30
2015,06,28,09,57,26.30
2015,06,28,09,58,26.30
2015,06,28,09,59,26.30
2015,06,28,10,00,26.30
2015,06,28,10,01,26.30
2015,06,28,10,02,26.30
2015,06,28,10,03,26.30
2015,06,28,10,04,26.30
2015,06,28,10,05,26.40
2015,06,28,10,06,26.40
2015,06,28,10,07,26.40
2015,06,28,10,08,26.50
2015,06,28,10,09,26.50
2015,06,28,10,10,26.50
2015,06,28,10,11,26.60
2015,06,28,10,12,26.60
2015,06,28,10,13,26.60
2015,06,28,10,14,26.70
2015,06,28,10,15,26.70
2015,06,28,10,16,26.70
2015,06,28,10,17,26.70
2015,06,28,10,18,26.80
2015,06,28,10,19,26.80
2015,06,28,10,20,26.90
2015,06,28,10,21,26.90
2015,06,28,10,22,26.90
2015,06,28,10,23,26.90
2015,06,28,10,24,26.90
2015,06,28,10,25,26.90
2015,06,28,10,26,26.90
2015,06,28,10,27,26.90
2015,06,28,10,28,26.90
2015,06,28,10,29,26.90
2015,06,28,10,30,26.90
2015,06,28,10,31,27.00
2015,06,28,10,32,27.00
2015,06,28,10,33,27.00
2015,06,28,10,34,27.10
2015,06,28,10,35,27.10
2015,06,28,10,36,27.20
2015,06,28,10,37,27.20
2015,06,28,10,38,27.30
2015,06,28,10,39,27.30
2015,06,28,10,40,27.40
2015,06,28,10,41,27.40
2015,06,28,10,42,27.40
2015,06,28,10,43,27.50
2015,06,28,10,44,27.60
2015,06,28,10,45,27.60
2015,06,28,10,46,27.60
2015,06,28,10,47,27.70
2015,06,28,10,48,27.70
2015,06,28,10,49,27.70
2015,06,28,10,50,27.70
2015,06,28,10,51,27.80
2015,06,28,10,52,27.80
2015,06,28,10,53,27.80
2015,06,28,10,54,27.90
2015,06,28,10,55,27.90
2015,06,28,10,56,27.90
2015,06,28,10,57,27.90
2015,06,28,10,58,27.90
2015,06,28,10,59,27.90
2015,06,28,11,00,27.90
2015,06,28,11,01,27.90
2015,06,28,11,02,27.90
2015,06,28,11,03,27.90
2015,06,28,11,04,27.90
2015,06,28,11,05,27.90
2015,06,28,11,06,27.90
2015,06,28,11,07,27.90
2015,06,28,11,08,27.90
2015,06,28,11,09,27.90
2015,06,28,11,10,27.90
2015,06,28,11,11,27.90
2015,06,28,11,12,27.90
2015,06,28,11,13,27.90
2015,06,28,11,14,27.90
2015,06,28,11,15,28.00
2015,06,28,11,16,28.00
2015,06,28,11,17,28.10
2015,06,28,11,18,28.10
2015,06,28,11,19,28.20
2015,06,28,11,20,28.20
2015,06,28,11,21,28.20
2015,06,28,11,22,28.20
2015,06,28,11,23,28.20
2015,06,28,11,24,28.20
2015,06,28,11,25,28.20
2015,06,28,11,26,28.20
2015,06,28,11,27,28.20
2015,06,28,11,28,28.20
2015,06,28,11,29,28.20
2015,06,28,11,30,28.20
2015,06,28,11,31,28.20
2015,06,28,11,32,28.20
2015,06,28,11,33,28.20
2015,06,28,11,34,28.20
2015,06,28,11,35,28.20
2015,06,28,11,36,28.20
2015,06,28,11,37,28.20
2015,06,28,11,38,28.30
2015,06,28,11,39,28.30
2015,06,28,11,40,28.30
2015,06,28,11,41,28.30
2015,06,28,11,42,28.30
2015,06,28,11,43,28.40
2015,06,28,11,44,28.40
2015,06,28,11,45,28.40
2015,06,28,11,46,28.50
2015,06,28,11,47,28.50
2015,06,28,11,48,28.60
2015,06,28,11,49,28.60
2015,06,28,11,50,28.70
2015,06,28,11,51,28.70
2015,06,28,11,52,28.80
2015,06,28,11,53,28.80
2015,06,28,11,54,28.80
2015,06,28,11,55,28.80
2015,06,28,11,56,28.80
2015,06,28,11,57,28.90
2015,06,28,11,58,28.90
2015,06,28,11,59,28.90
2015,06,28,12,00,29.00
2015,06,28,12,01,29.00
2015,06,28,12,02,29.00
2015,06,28,12,03,29.10
2015,06,28,12,04,29.10
2015,06,28,12,05,29.10
2015,06,28,12,06,29.10
2015,06,28,12,07,29.10
2015,06,28,12,08,29.10
2015,06,28,12,09,29.00
2015,06,28,12,10,29.00
2015,06,28,12,11,29.00
2015,06,28,12,12,29.00
2015,06,28,12,13,28.90
2015,06,28,12,14,28.90
2015,06,28,12,15,28.90
2015,06,28,12,16,28.80
2015,06,28,12,17,28.80
2015,06,28,12,18,28.80
2015,06,28,12,19,28.80
2015,06,28,12,20,28.80
2015,06,28,12,21,28.80
2015,06,28,12,22,28.70
2015,06,28,12,23,28.70
2015,06,28,12,24,28.70
2015,06,28,12,25,28.70
2015,06,28,12,26,28.70
2015,06,28,12,27,28.70
2015,06,28,12,28,28.70
2015,06,28,12,29,28.70
2015,06,28,12,30,28.70
2015,06,28,12,31,28.70
2015,06,28,12,32,28.70
2015,06,28,12,33,28.70
2015,06,28,12,34,28.70
2015,06,28,12,35,28.70
2015,06,28,12,36,28.60
2015,06,28,12,37,28.50
2015,06,28,12,38,28.50
2015,06,28,12,39,28.40
2015,06,28,12,40,28.30
2015,06,28,12,41,28.20
2015,06,28,12,42,28.10
2015,06,28,12,43,28.00
2015,06,28,12,44,27.90
2015,06,28,12,45,27.90
2015,06,28,12,46,27.80
2015,06,28,12,47,27.70
2015,06,28,12,48,27.60
2015,06,28,12,49,27.50
2015,06,28,12,50,27.40
2015,06,28,12,51,27.30
2015,06,28,12,52,27.20
2015,06,28,12,53,27.20
2015,06,28,12,54,27.10
2015,06,28,12,55,27.10
2015,06,28,12,56,27.00
2015,06,28,12,57,26.90
2015,06,28,12,58,26.90
2015,06,28,12,59,26.80
2015,06,28,13,00,26.80
2015,06,28,13,01,26.70
2015,06,28,13,02,26.60
2015,06,28,13,03,26.50
2015,06,28,13,04,26.50
2015,06,28,13,05,26.40
2015,06,28,13,06,26.40
2015,06,28,13,07,26.40
2015,06,28,13,08,26.30
2015,06,28,13,09,26.30
2015,06,28,13,10,26.30
2015,06,28,13,11,26.30
2015,06,28,13,12,26.30
2015,06,28,13,13,26.30
2015,06,28,13,14,26.30
2015,06,28,13,15,26.30
2015,06,28,13,16,26.20
2015,06,28,13,17,26.20
2015,06,28,13,18,26.20
2015,06,28,13,19,26.10
2015,06,28,13,20,26.10
2015,06,28,13,21,26.10
2015,06,28,13,22,26.10
2015,06,28,13,23,26.10
2015,06,28,13,24,26.10
2015,06,28,13,25,26.10
2015,06,28,13,26,26.10
2015,06,28,13,27,26.20
2015,06,28,13,28,26.20
2015,06,28,13,29,26.10
2015,06,28,13,30,26.20
2015,06,28,13,31,26.10
2015,06,28,13,32,26.20
2015,06,28,13,33,26.20
2015,06,28,13,34,26.20
2015,06,28,13,35,26.20
2015,06,28,13,36,26.20
2015,06,28,13,37,26.20
2015,06,28,13,38,26.20
2015,06,28,13,39,26.20
2015,06,28,13,40,26.20
2015,06,28,13,41,26.20
2015,06,28,13,42,26.10
2015,06,28,13,43,26.20
2015,06,28,13,44,26.20
2015,06,28,13,45,26.20
2015,06,28,13,46,26.20
2015,06,28,13,47,26.30
2015,06,28,13,48,26.30
2015,06,28,13,49,26.30
2015,06,28,13,50,26.30
2015,06,28,13,51,26.30
2015,06,28,13,52,26.30
2015,06,28,13,53,26.30
2015,06,28,13,54,26.30
2015,06,28,13,55,26.30
2015,06,28,13,56,26.30
2015,06,28,13,57,26.30
2015,06,28,13,58,26.20
2015,06,28,13,59,26.20
2015,06,28,14,00,26.20
2015,06,28,14,01,26.20
2015,06,28,14,02,26.10
2015,06,28,14,03,26.10
2015,06,28,14,04,26.10
2015,06,28,14,05,26.00
2015,06,28,14,06,25.90
2015,06,28,14,07,25.90
2015,06,28,14,08,25.90
2015,06,28,14,09,25.90
2015,06,28,14,10,25.80
2015,06,28,14,11,25.80
2015,06,28,14,12,25.70
2015,06,28,14,13,25.70
2015,06,28,14,14,25.70
2015,06,28,14,15,25.60
2015,06,28,14,16,25.60
2015,06,28,14,17,25.60
2015,06,28,14,18,25.60
2015,06,28,14,19,25.60
2015,06,28,14,20,25.60
2015,06,28,14,21,25.60
2015,06,28,14,22,25.60
2015,06,28,14,23,25.60
2015,06,28,14,24,25.60
2015,06,28,14,25,25.60
2015,06,28,14,26,25.60
2015,06,28,14,27,25.60
2015,06,28,14,28,25.60
2015,06,28,14,29,25.60
2015,06,28,14,30,25.60
2015,06,28,14,31,25.70
2015,06,28,14,32,25.70
2015,06,28,14,33,25.70
2015,06,28,14,34,25.70
2015,06,28,14,35,25.70
2015,06,28,14,36,25.70
2015,06,28,14,37,25.70
2015,06,28,14,38,25.70
2015,06,28,14,39,25.70
2015,06,28,14,40,25.80
2015,06,28,14,41,25.80
2015,06,28,14,42,25.80
2015,06,28,14,43,25.80
2015,06,28,14,44,25.80
2015,06,28,14,45,25.90
2015,06,28,14,46,25.90
2015,06,28,14,47,25.90
2015,06,28,14,48,25.90
2015,06,28,14,49,25.90
2015,06,28,14,50,26.00
2015,06,28,14,51,26.00
2015,06,28,14,52,26.10
2015,06,28,14,53,26.10
2015,06,28,14,54,26.10
2015,06,28,14,55,26.10
2015,06,28,14,56,26.10
2015,06,28,14,57,26.10
2015,06,28,14,58,26.10
2015,06,28,14,59,26.10
2015,06,28,15,00,26.10
2015,06,28,15,01,26.10
2015,06,28,15,02,26.10
2015,06,28,15,03,26.10
2015,06,28,15,04,26.10
2015,06,28,15,05,26.10
2015,06,28,15,06,26.10
2015,06,28,15,07,26.20
2015,06,28,15,08,26.20
2015,06,28,15,09,26.20
2015,06,28,15,10,26.20
2015,06,28,15,11,26.30
2015,06,28,15,12,26.30
2015,06,28,15,13,26.30
2015,06,28,15,14,26.30
2015,06,28,15,15,26.30
2015,06,28,15,16,26.30
2015,06,28,15,17,26.40
2015,06,28,15,18,26.40
2015,06,28,15,19,26.40
2015,06,28,15,20,26.40
2015,06,28,15,21,26.30
2015,06,28,15,22,26.30
2015,06,28,15,23,26.30
2015,06,28,15,24,26.20
2015,06,28,15,25,26.20
2015,06,28,15,26,26.20
2015,06,28,15,27,26.20
2015,06,28,15,28,26.10
2015,06,28,15,29,26.10
2015,06,28,15,30,26.10
2015,06,28,15,31,26.00
2015,06,28,15,32,26.00
2015,06,28,15,33,25.90
2015,06,28,15,34,25.90
2015,06,28,15,35,25.90
2015,06,28,15,36,25.90
2015,06,28,15,37,25.90
2015,06,28,15,38,25.80
2015,06,28,15,39,25.80
2015,06,28,15,40,25.70
2015,06,28,15,41,25.70
2015,06,28,15,42,25.60
2015,06,28,15,43,25.60
2015,06,28,15,44,25.50
2015,06,28,15,45,25.50
2015,06,28,15,46,25.40
2015,06,28,15,47,25.40
2015,06,28,15,48,25.30
2015,06,28,15,49,25.30
2015,06,28,15,50,25.30
2015,06,28,15,51,25.30
2015,06,28,15,52,25.30
2015,06,28,15,53,25.20
2015,06,28,15,54,25.20
2015,06,28,15,55,25.20
2015,06,28,15,56,25.20
2015,06,28,15,57,25.20
2015,06,28,15,58,25.10
2015,06,28,15,59,25.10
2015,06,28,16,00,25.10
2015,06,28,16,01,25.00
2015,06,28,16,02,25.00
2015,06,28,16,03,25.00
2015,06,28,16,04,24.90
2015,06,28,16,05,24.90
2015,06,28,16,06,24.90
2015,06,28,16,07,24.90
2015,06,28,16,08,24.80
2015,06,28,16,09,24.80
2015,06,28,16,10,24.80
2015,06,28,16,11,24.80
2015,06,28,16,12,24.80
2015,06,28,16,13,24.80
2015,06,28,16,14,24.80
2015,06,28,16,15,24.80
2015,06,28,16,16,24.80
2015,06,28,16,17,24.80
2015,06,28,16,18,24.80
2015,06,28,16,19,24.80
2015,06,28,16,20,24.80
2015,06,28,16,21,24.70
2015,06,28,16,22,24.70
2015,06,28,16,23,24.70
2015,06,28,16,24,24.70
2015,06,28,16,25,24.70
2015,06,28,16,26,24.70
2015,06,28,16,27,24.70
2015,06,28,16,28,24.70
2015,06,28,16,29,24.70
2015,06,28,16,30,24.60
2015,06,28,16,31,24.60
2015,06,28,16,32,24.60
2015,06,28,16,33,24.60
2015,06,28,16,34,24.60
2015,06,28,16,35,24.60
2015,06,28,16,36,24.60
2015,06,28,16,37,24.50
2015,06,28,16,38,24.50
2015,06,28,16,39,24.50
2015,06,28,16,40,24.40
2015,06,28,16,41,24.40
2015,06,28,16,42,24.30
2015,06,28,16,43,24.30
2015,06,28,16,44,24.20
2015,06,28,16,45,24.20
2015,06,28,16,46,24.20
2015,06,28,16,47,24.20
2015,06,28,16,48,24.10
2015,06,28,16,49,24.10
2015,06,28,16,50,24.10
2015,06,28,16,51,24.10
2015,06,28,16,52,24.00
2015,06,28,16,53,24.00
2015,06,28,16,54,23.90
2015,06,28,16,55,23.90
2015,06,28,16,56,23.90
2015,06,28,16,57,23.90
2015,06,28,16,58,23.90
2015,06,28,16,59,23.80
2015,06,28,17,00,23.80
2015,06,28,17,01,23.80
2015,06,28,17,02,23.80
2015,06,28,17,03,23.80
2015,06,28,17,04,23.80
2015,06,28,17,05,23.80
2015,06,28,17,06,23.80
2015,06,28,17,07,23.80
2015,06,28,17,08,23.70
2015,06,28,17,09,23.70
2015,06,28,17,10,23.70
2015,06,28,17,11,23.70
2015,06,28,17,12,23.70
2015,06,28,17,13,23.70
2015,06,28,17,14,23.70
2015,06,28,17,15,23.60
2015,06,28,17,16,23.60
2015,06,28,17,17,23.60
2015,06,28,17,18,23.60
2015,06,28,17,19,23.50